| time (UTC) | temp F | wind direction | speed knots | gust knots | rain 1hr in | rain 24hr in | rain mn in | humidity % | barometer mb |
| 20260507115502 | 53 | 317 | 0.0 | 1.7 | 0.00 | 0.00 | 0.00 | 78 | 1018.7 |
| 20260507114502 | 53 | 333 | 0.0 | 2.6 | 0.00 | 0.00 | 0.00 | 78 | 1018.8 |
| 20260507114002 | 53 | 347 | 0.0 | 1.7 | 0.00 | 0.00 | 0.00 | 78 | 1018.8 |
| 20260507113502 | 53 | 346 | 0.0 | 1.7 | 0.00 | 0.00 | 0.00 | 78 | 1018.8 |
| 20260507113002 | 53 | 339 | 0.0 | 1.7 | 0.00 | 0.00 | 0.00 | 77 | 1018.8 |
| 20260507112502 | 53 | 341 | 0.0 | 0.9 | 0.00 | 0.00 | 0.00 | 77 | 1018.9 |
| 20260507112023 | 53 | 0 | 0.0 | 0.0 | 0.00 | 0.00 | 0.00 | 77 | 1018.9 |
| 20260507111503 | 53 | 0 | 0.0 | 0.0 | 0.00 | 0.00 | 0.00 | 77 | 1018.9 |
| 20260507111023 | 53 | 0 | 0.0 | 0.0 | 0.00 | 0.00 | 0.00 | 77 | 1018.9 |
| 20260507110502 | 53 | 0 | 0.0 | 0.0 | 0.00 | 0.00 | 0.00 | 77 | 1018.9 |
| 20260507110002 | 53 | 0 | 0.0 | 0.0 | 0.00 | 0.00 | 0.00 | 77 | 1018.9 |
| 20260507105502 | 53 | 0 | 0.0 | 0.0 | 0.00 | 0.00 | 0.00 | 77 | 1019.0 |
| 20260507105002 | 53 | 0 | 0.0 | 0.0 | 0.00 | 0.00 | 0.00 | 77 | 1019.0 |
| 20260507104502 | 53 | 352 | 0.0 | 2.6 | 0.00 | 0.00 | 0.00 | 76 | 1019.0 |
| 20260507104002 | 53 | 350 | 0.0 | 2.6 | 0.00 | 0.00 | 0.00 | 76 | 1019.0 |
| 20260507103502 | 53 | 334 | 0.9 | 2.6 | 0.00 | 0.00 | 0.00 | 76 | 1019.0 |
| 20260507103002 | 53 | 329 | 0.9 | 2.6 | 0.00 | 0.00 | 0.00 | 76 | 1019.1 |
| 20260507102523 | 53 | 332 | 0.9 | 5.2 | 0.00 | 0.00 | 0.00 | 76 | 1019.1 |
| 20260507102002 | 53 | 335 | 0.9 | 5.2 | 0.00 | 0.00 | 0.00 | 76 | 1019.1 |
| 20260507101523 | 53 | 0 | 0.0 | 0.0 | 0.00 | 0.00 | 0.00 | 76 | 1019.1 |
| 20260507101023 | 54 | 338 | 0.0 | 0.9 | 0.00 | 0.00 | 0.00 | 76 | 1019.1 |
| 20260507100502 | 54 | 323 | 0.9 | 3.5 | 0.00 | 0.00 | 0.00 | 75 | 1019.2 |
| 20260507100002 | 54 | 325 | 0.9 | 3.5 | 0.00 | 0.00 | 0.00 | 75 | 1019.2 |
| 20260507095502 | 54 | 336 | 0.9 | 2.6 | 0.00 | 0.00 | 0.00 | 75 | 1019.2 |
| 20260507095002 | 54 | 338 | 0.0 | 1.7 | 0.00 | 0.00 | 0.00 | 76 | 1019.2 |
| 20260507094502 | 54 | 0 | 0.0 | 0.0 | 0.00 | 0.00 | 0.00 | 76 | 1019.2 |
| 20260507094002 | 54 | 0 | 0.0 | 0.0 | 0.00 | 0.00 | 0.00 | 76 | 1019.3 |
| 20260507093502 | 54 | 0 | 0.0 | 0.0 | 0.00 | 0.00 | 0.00 | 76 | 1019.4 |
| 20260507093002 | 54 | 0 | 0.0 | 0.0 | 0.00 | 0.00 | 0.00 | 76 | 1019.4 |
| 20260507092502 | 54 | 0 | 0.0 | 0.0 | 0.00 | 0.00 | 0.00 | 77 | 1019.5 |
| 20260507092002 | 54 | 0 | 0.0 | 0.0 | 0.00 | 0.00 | 0.00 | 76 | 1019.5 |
| 20260507091502 | 54 | 0 | 0.0 | 0.0 | 0.00 | 0.00 | 0.00 | 77 | 1019.5 |
| 20260507091002 | 54 | 333 | 0.0 | 1.7 | 0.00 | 0.00 | 0.00 | 77 | 1019.6 |
| 20260507090502 | 54 | 329 | 0.0 | 1.7 | 0.00 | 0.00 | 0.00 | 77 | 1019.6 |
| 20260507090002 | 54 | 322 | 0.0 | 1.7 | 0.00 | 0.00 | 0.00 | 77 | 1019.6 |
| 20260507085502 | 54 | 319 | 0.0 | 2.6 | 0.00 | 0.00 | 0.00 | 77 | 1019.6 |
| 20260507085002 | 54 | 322 | 0.0 | 2.6 | 0.00 | 0.00 | 0.00 | 77 | 1019.5 |
| 20260507084502 | 54 | 0 | 0.0 | 0.0 | 0.00 | 0.00 | 0.00 | 77 | 1019.6 |
| 20260507084023 | 54 | 0 | 0.0 | 0.0 | 0.00 | 0.00 | 0.00 | 77 | 1019.5 |
| 20260507083523 | 54 | 0 | 0.0 | 0.0 | 0.00 | 0.00 | 0.00 | 78 | 1019.5 |
| 20260507083002 | 54 | 333 | 0.9 | 2.6 | 0.00 | 0.00 | 0.00 | 78 | 1019.5 |
| 20260507082502 | 54 | 333 | 0.9 | 4.3 | 0.00 | 0.00 | 0.00 | 78 | 1019.5 |
| 20260507082023 | 54 | 333 | 0.9 | 4.3 | 0.00 | 0.00 | 0.00 | 78 | 1019.5 |
| 20260507081523 | 54 | 33 | 0.0 | 1.7 | 0.00 | 0.00 | 0.00 | 78 | 1019.5 |
| 20260507081002 | 54 | 333 | 0.9 | 3.5 | 0.00 | 0.00 | 0.00 | 78 | 1019.4 |
| 20260507080523 | 54 | 331 | 0.9 | 3.5 | 0.00 | 0.00 | 0.00 | 78 | 1019.5 |
| 20260507080002 | 54 | 330 | 0.9 | 3.5 | 0.00 | 0.00 | 0.00 | 78 | 1019.5 |
| 20260507075502 | 54 | 331 | 0.9 | 4.3 | 0.00 | 0.00 | 0.00 | 78 | 1019.5 |
| 20260507075002 | 54 | 337 | 0.9 | 4.3 | 0.00 | 0.00 | 0.00 | 78 | 1019.5 |
| 20260507074502 | 54 | 335 | 0.9 | 2.6 | 0.00 | 0.00 | 0.00 | 79 | 1019.5 |
| 20260507074002 | 54 | 320 | 0.0 | 1.7 | 0.00 | 0.00 | 0.00 | 79 | 1019.5 |
| 20260507073523 | 54 | 331 | 0.0 | 1.7 | 0.00 | 0.00 | 0.00 | 79 | 1019.5 |
| 20260507073002 | 54 | 343 | 0.0 | 2.6 | 0.00 | 0.00 | 0.00 | 79 | 1019.4 |
| 20260507072502 | 54 | 340 | 0.9 | 2.6 | 0.00 | 0.00 | 0.00 | 79 | 1019.4 |
| 20260507072002 | 54 | 332 | 0.0 | 2.6 | 0.00 | 0.00 | 0.00 | 79 | 1019.4 |
| 20260507071502 | 54 | 0 | 0.0 | 0.0 | 0.00 | 0.00 | 0.00 | 79 | 1019.4 |
| 20260507071002 | 55 | 0 | 0.0 | 0.0 | 0.00 | 0.00 | 0.00 | 79 | 1019.4 |
| 20260507070502 | 55 | 323 | 0.0 | 1.7 | 0.00 | 0.00 | 0.00 | 79 | 1019.4 |
| 20260507070004 | 55 | 337 | 0.0 | 2.6 | 0.00 | 0.00 | 0.00 | 79 | 1019.4 |
| 20260507065502 | 55 | 338 | 0.9 | 2.6 | 0.00 | 0.00 | 0.00 | 79 | 1019.4 |
| 20260507065023 | 55 | 342 | 0.9 | 3.5 | 0.00 | 0.00 | 0.00 | 80 | 1019.5 |
| 20260507064502 | 55 | 341 | 0.9 | 3.5 | 0.00 | 0.00 | 0.00 | 80 | 1019.4 |
| 20260507064023 | 55 | 336 | 0.9 | 3.5 | 0.00 | 0.00 | 0.00 | 80 | 1019.4 |
| 20260507063502 | 55 | 336 | 0.9 | 5.2 | 0.00 | 0.00 | 0.00 | 80 | 1019.4 |
| 20260507063002 | 55 | 337 | 0.9 | 5.2 | 0.00 | 0.00 | 0.00 | 80 | 1019.4 |
| 20260507062502 | 55 | 336 | 0.9 | 4.3 | 0.00 | 0.00 | 0.00 | 80 | 1019.5 |
| 20260507062002 | 55 | 335 | 0.9 | 4.3 | 0.00 | 0.00 | 0.00 | 79 | 1019.5 |
| 20260507061502 | 55 | 336 | 0.9 | 4.3 | 0.00 | 0.00 | 0.00 | 79 | 1019.5 |
| 20260507061023 | 55 | 338 | 0.9 | 5.2 | 0.00 | 0.00 | 0.00 | 79 | 1019.5 |
| 20260507060502 | 55 | 338 | 0.9 | 5.2 | 0.00 | 0.00 | 0.00 | 79 | 1019.5 |
| 20260507060002 | 56 | 329 | 0.9 | 5.2 | 0.00 | 0.00 | 0.00 | 79 | 1019.4 |
| 20260507055523 | 56 | 333 | 0.9 | 3.5 | 0.00 | 0.00 | 0.00 | 79 | 1019.4 |
| 20260507055002 | 56 | 337 | 0.9 | 3.5 | 0.00 | 0.00 | 0.00 | 78 | 1019.4 |
| 20260507054502 | 56 | 336 | 0.9 | 3.5 | 0.00 | 0.00 | 0.00 | 78 | 1019.4 |
| 20260507054002 | 56 | 339 | 0.9 | 3.5 | 0.00 | 0.00 | 0.00 | 78 | 1019.4 |
| 20260507053502 | 56 | 341 | 0.9 | 3.5 | 0.00 | 0.00 | 0.00 | 78 | 1019.4 |
| 20260507053003 | 56 | 341 | 0.9 | 3.5 | 0.00 | 0.00 | 0.00 | 78 | 1019.4 |
| 20260507052502 | 56 | 339 | 0.9 | 3.5 | 0.00 | 0.00 | 0.00 | 78 | 1019.4 |
| 20260507052003 | 56 | 335 | 1.7 | 5.2 | 0.00 | 0.00 | 0.00 | 77 | 1019.4 |
| 20260507051523 | 56 | 331 | 1.7 | 5.2 | 0.00 | 0.00 | 0.00 | 77 | 1019.3 |
| 20260507051002 | 57 | 332 | 1.7 | 4.3 | 0.00 | 0.00 | 0.00 | 77 | 1019.3 |
| 20260507050502 | 57 | 342 | 0.9 | 4.3 | 0.00 | 0.00 | 0.00 | 77 | 1019.4 |
| 20260507050002 | 57 | 343 | 0.9 | 4.3 | 0.00 | 0.00 | 0.00 | 77 | 1019.3 |
| 20260507045502 | 57 | 335 | 0.9 | 4.3 | 0.00 | 0.00 | 0.00 | 76 | 1019.4 |
| 20260507045023 | 57 | 328 | 0.9 | 3.5 | 0.00 | 0.00 | 0.00 | 76 | 1019.3 |
| 20260507044502 | 57 | 335 | 0.9 | 4.3 | 0.00 | 0.00 | 0.00 | 76 | 1019.4 |
| 20260507044024 | 58 | 337 | 0.9 | 4.3 | 0.00 | 0.00 | 0.00 | 76 | 1019.3 |
| 20260507043523 | 58 | 340 | 0.9 | 5.2 | 0.00 | 0.00 | 0.00 | 76 | 1019.3 |
| 20260507043002 | 58 | 338 | 0.9 | 5.2 | 0.00 | 0.00 | 0.00 | 76 | 1019.2 |
| 20260507042502 | 58 | 332 | 0.9 | 3.5 | 0.00 | 0.00 | 0.00 | 76 | 1019.2 |
| 20260507042002 | 58 | 333 | 0.9 | 3.5 | 0.00 | 0.00 | 0.00 | 76 | 1019.1 |
| 20260507041502 | 58 | 338 | 0.9 | 3.5 | 0.00 | 0.00 | 0.00 | 76 | 1019.1 |
| 20260507041002 | 59 | 334 | 0.9 | 3.5 | 0.00 | 0.00 | 0.00 | 76 | 1019.0 |
| 20260507040502 | 59 | 327 | 1.7 | 4.3 | 0.00 | 0.00 | 0.00 | 76 | 1018.9 |
| 20260507040002 | 59 | 325 | 0.9 | 4.3 | 0.00 | 0.00 | 0.00 | 76 | 1018.9 |
| 20260507035523 | 59 | 308 | 0.9 | 2.6 | 0.00 | 0.00 | 0.00 | 76 | 1018.8 |
| 20260507035002 | 59 | 326 | 0.9 | 7.0 | 0.00 | 0.00 | 0.00 | 77 | 1018.7 |
| 20260507034502 | 59 | 336 | 0.9 | 7.0 | 0.00 | 0.00 | 0.00 | 76 | 1018.6 |
| 20260507034003 | 59 | 333 | 0.9 | 4.3 | 0.00 | 0.00 | 0.00 | 76 | 1018.6 |
| 20260507033502 | 59 | 326 | 0.9 | 3.5 | 0.00 | 0.00 | 0.00 | 76 | 1018.5 |
| 20260507033002 | 59 | 323 | 0.9 | 3.5 | 0.00 | 0.00 | 0.00 | 76 | 1018.5 |
| 20260507032502 | 59 | 323 | 0.9 | 3.5 | 0.00 | 0.00 | 0.00 | 76 | 1018.4 |
| 20260507032002 | 60 | 322 | 0.9 | 3.5 | 0.00 | 0.00 | 0.00 | 75 | 1018.4 |
| 20260507031502 | 60 | 312 | 0.9 | 3.5 | 0.00 | 0.00 | 0.00 | 75 | 1018.3 |
| 20260507031002 | 60 | 317 | 0.9 | 4.3 | 0.00 | 0.00 | 0.00 | 74 | 1018.2 |
| 20260507030503 | 60 | 321 | 0.9 | 5.2 | 0.00 | 0.00 | 0.00 | 74 | 1018.2 |
| 20260507030002 | 61 | 310 | 0.9 | 5.2 | 0.00 | 0.00 | 0.00 | 73 | 1018.2 |
| 20260507025502 | 61 | 308 | 0.9 | 2.6 | 0.00 | 0.00 | 0.00 | 73 | 1018.1 |
| 20260507025002 | 62 | 320 | 0.9 | 4.3 | 0.00 | 0.00 | 0.00 | 72 | 1018.1 |
| 20260507024504 | 62 | 334 | 0.9 | 4.3 | 0.00 | 0.00 | 0.00 | 72 | 1018.0 |
| 20260507024002 | 62 | 337 | 0.9 | 3.5 | 0.00 | 0.00 | 0.00 | 71 | 1018.0 |
| 20260507023502 | 62 | 339 | 0.9 | 3.5 | 0.00 | 0.00 | 0.00 | 71 | 1017.8 |
| 20260507023002 | 63 | 342 | 0.9 | 3.5 | 0.00 | 0.00 | 0.00 | 71 | 1017.9 |
| 20260507022502 | 63 | 338 | 0.9 | 4.3 | 0.00 | 0.00 | 0.00 | 71 | 1017.9 |
| 20260507022023 | 63 | 336 | 0.9 | 4.3 | 0.00 | 0.00 | 0.00 | 70 | 1017.8 |
| 20260507021502 | 63 | 325 | 0.9 | 2.6 | 0.00 | 0.00 | 0.00 | 70 | 1018.0 |
| 20260507021023 | 63 | 315 | 0.9 | 4.3 | 0.00 | 0.00 | 0.00 | 70 | 1018.0 |
| 20260507020523 | 63 | 314 | 0.9 | 4.3 | 0.00 | 0.00 | 0.00 | 70 | 1018.0 |
| 20260507020002 | 64 | 334 | 0.9 | 2.6 | 0.00 | 0.00 | 0.00 | 69 | 1018.0 |
| 20260507015502 | 64 | 340 | 0.9 | 7.0 | 0.00 | 0.00 | 0.00 | 69 | 1017.9 |
| 20260507015003 | 64 | 340 | 0.9 | 7.0 | 0.00 | 0.00 | 0.00 | 69 | 1018.0 |
| 20260507014502 | 64 | 336 | 0.9 | 4.3 | 0.00 | 0.00 | 0.00 | 68 | 1018.0 |
| 20260507014023 | 65 | 332 | 0.9 | 4.3 | 0.00 | 0.00 | 0.00 | 67 | 1018.0 |
| 20260507013523 | 66 | 333 | 0.9 | 3.5 | 0.00 | 0.00 | 0.00 | 67 | 1018.0 |
| 20260507013002 | 66 | 329 | 0.9 | 7.0 | 0.00 | 0.00 | 0.00 | 68 | 1017.9 |
| 20260507012502 | 66 | 332 | 0.9 | 7.0 | 0.00 | 0.00 | 0.00 | 67 | 1017.8 |
| 20260507012003 | 67 | 329 | 0.9 | 3.5 | 0.00 | 0.00 | 0.00 | 67 | 1017.8 |
| 20260507011502 | 67 | 317 | 0.9 | 4.3 | 0.00 | 0.00 | 0.00 | 66 | 1017.7 |
| 20260507011002 | 68 | 326 | 0.9 | 4.3 | 0.00 | 0.00 | 0.00 | 66 | 1017.8 |
| 20260507010502 | 69 | 330 | 0.9 | 7.8 | 0.00 | 0.00 | 0.00 | 65 | 1017.9 |
| 20260507010002 | 69 | 327 | 0.9 | 7.8 | 0.00 | 0.00 | 0.00 | 63 | 1017.8 |
| 20260507005502 | 70 | 334 | 0.0 | 4.3 | 0.00 | 0.00 | 0.00 | 62 | 1017.7 |
| 20260507005002 | 70 | 339 | 0.0 | 0.9 | 0.00 | 0.00 | 0.00 | 62 | 1017.7 |
| 20260507004502 | 71 | 277 | 0.0 | 1.7 | 0.00 | 0.00 | 0.00 | 61 | 1017.7 |
| 20260507004002 | 71 | 268 | 0.9 | 1.7 | 0.00 | 0.00 | 0.00 | 60 | 1017.7 |
| 20260507003502 | 71 | 273 | 0.9 | 1.7 | 0.00 | 0.00 | 0.00 | 60 | 1017.7 |
| 20260507003003 | 71 | 299 | 0.9 | 1.7 | 0.00 | 0.00 | 0.00 | 60 | 1017.7 |
| 20260507002502 | 71 | 302 | 0.9 | 1.7 | 0.00 | 0.00 | 0.00 | 59 | 1017.8 |
| 20260507002002 | 72 | 285 | 0.0 | 0.9 | 0.00 | 0.00 | 0.00 | 59 | 1017.8 |
| 20260507001502 | 72 | 0 | 0.0 | 0.0 | 0.00 | 0.00 | 0.00 | 58 | 1017.8 |
| 20260507001002 | 72 | 0 | 0.0 | 0.0 | 0.00 | 0.00 | 0.00 | 59 | 1017.7 |
| 20260507000502 | 72 | 79 | 0.0 | 0.9 | 0.00 | 0.00 | 0.00 | 59 | 1017.7 |
| 20260507000003 | 71 | 174 | 0.9 | 2.6 | 0.00 | 0.00 | 0.00 | 60 | 1017.8 |
| 20260506235502 | 71 | 168 | 0.9 | 2.6 | 0.00 | 0.00 | 0.00 | 59 | 1017.7 |
| 20260506235004 | 71 | 140 | 0.0 | 1.7 | 0.00 | 0.00 | 0.00 | 60 | 1017.7 |
| 20260506234502 | 71 | 113 | 0.0 | 1.7 | 0.00 | 0.00 | 0.00 | 59 | 1017.8 |
| 20260506234023 | 71 | 166 | 0.0 | 1.7 | 0.00 | 0.00 | 0.00 | 59 | 1017.8 |
| 20260506233502 | 71 | 229 | 0.9 | 1.7 | 0.00 | 0.00 | 0.00 | 58 | 1017.8 |
| 20260506233023 | 72 | 271 | 0.9 | 3.5 | 0.00 | 0.00 | 0.00 | 58 | 1017.8 |
| 20260506232502 | 72 | 291 | 1.7 | 6.1 | 0.00 | 0.00 | 0.00 | 58 | 1017.8 |
| 20260506232023 | 72 | 290 | 0.9 | 6.1 | 0.00 | 0.00 | 0.00 | 58 | 1017.9 |
| 20260506231502 | 72 | 220 | 0.9 | 1.7 | 0.00 | 0.00 | 0.00 | 59 | 1018.0 |
| 20260506231023 | 72 | 207 | 0.9 | 2.6 | 0.00 | 0.00 | 0.00 | 58 | 1018.1 |
| 20260506230502 | 71 | 184 | 0.0 | 3.5 | 0.00 | 0.00 | 0.00 | 60 | 1018.1 |
| 20260506230002 | 71 | 152 | 0.0 | 3.5 | 0.00 | 0.00 | 0.00 | 60 | 1018.1 |
| 20260506225502 | 71 | 165 | 0.9 | 1.7 | 0.00 | 0.00 | 0.00 | 60 | 1018.2 |
| 20260506225002 | 71 | 160 | 0.0 | 1.7 | 0.00 | 0.00 | 0.00 | 59 | 1018.3 |
| 20260506224502 | 71 | 155 | 0.0 | 1.7 | 0.00 | 0.00 | 0.00 | 60 | 1018.4 |
| 20260506224002 | 70 | 200 | 0.9 | 1.7 | 0.00 | 0.00 | 0.00 | 61 | 1018.4 |
| 20260506223502 | 70 | 207 | 0.9 | 1.7 | 0.00 | 0.00 | 0.00 | 61 | 1018.4 |
| 20260506223023 | 70 | 205 | 0.9 | 1.7 | 0.00 | 0.00 | 0.00 | 61 | 1018.5 |
| 20260506222502 | 70 | 215 | 0.9 | 1.7 | 0.00 | 0.00 | 0.00 | 62 | 1018.5 |
| 20260506222002 | 69 | 337 | 0.9 | 2.6 | 0.00 | 0.00 | 0.00 | 63 | 1018.6 |
| 20260506221502 | 69 | 323 | 0.9 | 2.6 | 0.00 | 0.00 | 0.00 | 63 | 1018.6 |
| 20260506221002 | 68 | 281 | 0.9 | 1.7 | 0.00 | 0.00 | 0.00 | 66 | 1018.6 |
| 20260506220502 | 68 | 171 | 0.9 | 1.7 | 0.00 | 0.00 | 0.00 | 66 | 1018.6 |
| 20260506220024 | 68 | 195 | 0.9 | 3.5 | 0.00 | 0.00 | 0.00 | 66 | 1018.5 |
| 20260506215502 | 68 | 220 | 0.9 | 3.5 | 0.00 | 0.00 | 0.00 | 66 | 1018.4 |
| 20260506215002 | 68 | 205 | 0.9 | 2.6 | 0.00 | 0.00 | 0.00 | 67 | 1018.5 |
| 20260506214502 | 67 | 163 | 0.9 | 1.7 | 0.00 | 0.00 | 0.00 | 67 | 1018.6 |
| 20260506214002 | 67 | 139 | 0.9 | 2.6 | 0.00 | 0.00 | 0.00 | 67 | 1018.7 |
| 20260506213502 | 67 | 149 | 0.9 | 2.6 | 0.00 | 0.00 | 0.00 | 67 | 1018.7 |
| 20260506213023 | 67 | 188 | 0.9 | 2.6 | 0.00 | 0.00 | 0.00 | 67 | 1018.9 |
| 20260506212523 | 67 | 239 | 0.9 | 7.8 | 0.00 | 0.00 | 0.00 | 68 | 1018.9 |
| 20260506212002 | 67 | 232 | 0.9 | 7.8 | 0.00 | 0.00 | 0.00 | 67 | 1019.0 |
| 20260506211502 | 67 | 232 | 0.9 | 4.3 | 0.00 | 0.00 | 0.00 | 67 | 1019.1 |
| 20260506211002 | 67 | 265 | 0.9 | 4.3 | 0.00 | 0.00 | 0.00 | 68 | 1018.9 |
| 20260506210502 | 67 | 253 | 0.9 | 2.6 | 0.00 | 0.00 | 0.00 | 68 | 1019.0 |
| 20260506210002 | 67 | 191 | 0.9 | 1.7 | 0.00 | 0.00 | 0.00 | 68 | 1019.0 |
| 20260506205502 | 66 | 156 | 0.9 | 2.6 | 0.00 | 0.00 | 0.00 | 68 | 1018.9 |
| 20260506205003 | 66 | 139 | 0.9 | 2.6 | 0.00 | 0.00 | 0.00 | 69 | 1018.9 |
| 20260506204502 | 66 | 206 | 0.9 | 2.6 | 0.00 | 0.00 | 0.00 | 70 | 1018.8 |
| 20260506204002 | 66 | 200 | 0.9 | 2.6 | 0.00 | 0.00 | 0.00 | 71 | 1018.8 |
| 20260506203503 | 65 | 158 | 0.9 | 2.6 | 0.00 | 0.00 | 0.00 | 71 | 1018.9 |
| 20260506203002 | 64 | 138 | 0.9 | 1.7 | 0.00 | 0.00 | 0.00 | 72 | 1019.0 |
| 20260506202502 | 64 | 136 | 0.9 | 3.5 | 0.00 | 0.00 | 0.00 | 73 | 1019.0 |
| 20260506202024 | 64 | 143 | 0.9 | 3.5 | 0.00 | 0.00 | 0.00 | 73 | 1019.0 |
| 20260506201503 | 64 | 165 | 0.9 | 2.6 | 0.00 | 0.00 | 0.00 | 74 | 1019.2 |
| 20260506201002 | 64 | 196 | 0.9 | 2.6 | 0.00 | 0.00 | 0.00 | 74 | 1019.3 |
| 20260506200502 | 64 | 220 | 0.0 | 1.7 | 0.00 | 0.00 | 0.00 | 74 | 1019.3 |
| 20260506200003 | 63 | 0 | 0.0 | 0.0 | 0.00 | 0.00 | 0.00 | 74 | 1019.3 |
| 20260506195502 | 63 | 259 | 0.0 | 1.7 | 0.00 | 0.00 | 0.00 | 74 | 1019.3 |
| 20260506195002 | 63 | 217 | 0.0 | 1.7 | 0.00 | 0.00 | 0.00 | 74 | 1019.4 |
| 20260506194523 | 63 | 222 | 0.9 | 1.7 | 0.00 | 0.00 | 0.00 | 74 | 1019.4 |
| 20260506194002 | 63 | 234 | 0.9 | 4.3 | 0.00 | 0.00 | 0.00 | 74 | 1019.4 |
| 20260506193502 | 63 | 227 | 0.9 | 4.3 | 0.00 | 0.00 | 0.00 | 74 | 1019.4 |
| 20260506193003 | 63 | 202 | 0.9 | 2.6 | 0.00 | 0.00 | 0.00 | 75 | 1019.3 |
| 20260506192502 | 63 | 170 | 0.9 | 2.6 | 0.00 | 0.00 | 0.00 | 74 | 1019.2 |
| 20260506192002 | 63 | 160 | 0.9 | 2.6 | 0.00 | 0.00 | 0.00 | 74 | 1019.2 |
| 20260506191502 | 63 | 190 | 0.9 | 3.5 | 0.00 | 0.00 | 0.00 | 75 | 1019.2 |
| 20260506191002 | 62 | 210 | 0.9 | 3.5 | 0.00 | 0.00 | 0.00 | 76 | 1019.2 |
| 20260506190502 | 62 | 207 | 0.9 | 3.5 | 0.00 | 0.00 | 0.00 | 75 | 1019.3 |
| 20260506190023 | 62 | 196 | 0.9 | 1.7 | 0.00 | 0.00 | 0.00 | 75 | 1019.2 |
| 20260506185503 | 62 | 192 | 0.9 | 2.6 | 0.00 | 0.00 | 0.00 | 77 | 1019.2 |
| 20260506185002 | 62 | 198 | 0.9 | 2.6 | 0.00 | 0.00 | 0.00 | 76 | 1019.2 |
| 20260506184503 | 62 | 197 | 0.9 | 3.5 | 0.00 | 0.00 | 0.00 | 76 | 1019.2 |
| 20260506184003 | 62 | 197 | 0.9 | 3.5 | 0.00 | 0.00 | 0.00 | 77 | 1019.2 |
| 20260506183502 | 61 | 214 | 0.9 | 1.7 | 0.00 | 0.00 | 0.00 | 77 | 1019.2 |
| 20260506183023 | 61 | 235 | 0.9 | 2.6 | 0.00 | 0.00 | 0.00 | 77 | 1019.2 |
| 20260506182502 | 61 | 224 | 0.9 | 2.6 | 0.00 | 0.00 | 0.00 | 77 | 1019.1 |
| 20260506182002 | 61 | 191 | 0.9 | 2.6 | 0.00 | 0.00 | 0.00 | 78 | 1019.2 |
| 20260506181503 | 61 | 184 | 0.9 | 2.6 | 0.00 | 0.00 | 0.00 | 77 | 1019.2 |
| 20260506181023 | 60 | 199 | 0.9 | 2.6 | 0.00 | 0.00 | 0.00 | 78 | 1019.2 |
| 20260506180502 | 60 | 208 | 0.9 | 2.6 | 0.00 | 0.00 | 0.00 | 78 | 1019.3 |
| 20260506180002 | 60 | 209 | 0.9 | 2.6 | 0.00 | 0.00 | 0.00 | 78 | 1019.3 |
| 20260506175502 | 60 | 221 | 0.9 | 2.6 | 0.00 | 0.00 | 0.00 | 78 | 1019.2 |
| 20260506175023 | 60 | 210 | 0.9 | 2.6 | 0.00 | 0.00 | 0.00 | 79 | 1019.2 |
| 20260506174523 | 60 | 184 | 0.9 | 1.7 | 0.00 | 0.00 | 0.00 | 80 | 1019.1 |
| 20260506174002 | 59 | 194 | 0.9 | 1.7 | 0.00 | 0.00 | 0.00 | 80 | 1019.0 |
| 20260506173502 | 59 | 209 | 0.9 | 2.6 | 0.00 | 0.00 | 0.00 | 81 | 1019.0 |
| 20260506173002 | 58 | 204 | 0.9 | 2.6 | 0.00 | 0.00 | 0.00 | 82 | 1019.0 |
| 20260506172502 | 58 | 217 | 0.9 | 1.7 | 0.00 | 0.00 | 0.00 | 82 | 1018.9 |
| 20260506172002 | 58 | 226 | 0.9 | 1.7 | 0.00 | 0.00 | 0.00 | 83 | 1019.0 |
| 20260506171502 | 58 | 220 | 0.9 | 1.7 | 0.00 | 0.00 | 0.00 | 83 | 1019.0 |
| 20260506171005 | 58 | 216 | 0.9 | 2.6 | 0.00 | 0.00 | 0.00 | 83 | 1019.1 |
| 20260506170502 | 58 | 203 | 0.9 | 2.6 | 0.00 | 0.00 | 0.00 | 82 | 1019.1 |
| 20260506170002 | 58 | 199 | 0.9 | 3.5 | 0.00 | 0.00 | 0.00 | 82 | 1018.9 |
| 20260506165502 | 58 | 196 | 0.9 | 3.5 | 0.00 | 0.00 | 0.00 | 83 | 1018.9 |
| 20260506165002 | 58 | 198 | 0.9 | 1.7 | 0.00 | 0.00 | 0.00 | 83 | 1019.0 |
| 20260506164502 | 58 | 207 | 0.9 | 2.6 | 0.00 | 0.00 | 0.00 | 83 | 1019.0 |
| 20260506164002 | 58 | 199 | 0.9 | 2.6 | 0.00 | 0.00 | 0.00 | 83 | 1019.0 |
| 20260506163502 | 58 | 187 | 0.9 | 1.7 | 0.00 | 0.00 | 0.00 | 82 | 1018.8 |
| 20260506163002 | 58 | 184 | 0.9 | 2.6 | 0.00 | 0.00 | 0.00 | 83 | 1018.8 |
| 20260506162502 | 58 | 187 | 0.9 | 2.6 | 0.00 | 0.00 | 0.00 | 83 | 1018.7 |
| 20260506162002 | 58 | 190 | 0.9 | 1.7 | 0.00 | 0.00 | 0.00 | 83 | 1018.7 |
| 20260506161503 | 58 | 181 | 0.0 | 1.7 | 0.00 | 0.00 | 0.00 | 84 | 1018.7 |
| 20260506161024 | 58 | 173 | 0.9 | 2.6 | 0.00 | 0.00 | 0.00 | 85 | 1018.5 |
| 20260506160502 | 58 | 143 | 0.9 | 2.6 | 0.00 | 0.00 | 0.00 | 85 | 1018.6 |
| 20260506160003 | 57 | 108 | 0.9 | 5.2 | 0.00 | 0.00 | 0.00 | 87 | 1018.2 |
| 20260506155502 | 57 | 103 | 0.9 | 5.2 | 0.00 | 0.00 | 0.00 | 87 | 1017.9 |
| 20260506155002 | 57 | 113 | 0.0 | 0.9 | 0.00 | 0.00 | 0.00 | 87 | 1018.2 |
| 20260506154502 | 56 | 210 | 0.0 | 1.7 | 0.00 | 0.00 | 0.00 | 87 | 1018.4 |
| 20260506154002 | 56 | 197 | 0.9 | 1.7 | 0.00 | 0.00 | 0.00 | 87 | 1018.7 |
| 20260506153502 | 56 | 186 | 0.0 | 1.7 | 0.00 | 0.00 | 0.00 | 87 | 1018.9 |
| 20260506153003 | 56 | 201 | 0.0 | 1.7 | 0.00 | 0.00 | 0.00 | 87 | 1018.9 |
| 20260506152502 | 56 | 210 | 0.0 | 1.7 | 0.00 | 0.00 | 0.00 | 87 | 1019.0 |
| 20260506152002 | 56 | 206 | 0.0 | 1.7 | 0.00 | 0.00 | 0.00 | 87 | 1019.0 |
| 20260506151523 | 56 | 199 | 0.0 | 1.7 | 0.00 | 0.00 | 0.00 | 87 | 1018.9 |
| 20260506151002 | 56 | 239 | 0.0 | 1.7 | 0.00 | 0.00 | 0.00 | 86 | 1018.9 |
| 20260506150502 | 56 | 217 | 0.9 | 1.7 | 0.00 | 0.00 | 0.00 | 86 | 1018.8 |
| 20260506150003 | 56 | 185 | 0.9 | 1.7 | 0.00 | 0.00 | 0.00 | 85 | 1018.8 |
| 20260506145502 | 56 | 220 | 0.9 | 2.6 | 0.00 | 0.00 | 0.00 | 85 | 1018.8 |
| 20260506145023 | 56 | 252 | 0.9 | 4.3 | 0.00 | 0.00 | 0.00 | 86 | 1018.8 |
| 20260506144502 | 56 | 264 | 0.0 | 4.3 | 0.00 | 0.00 | 0.00 | 86 | 1018.6 |
| 20260506144002 | 56 | 244 | 0.0 | 1.7 | 0.00 | 0.00 | 0.00 | 87 | 1018.4 |
| 20260506143502 | 56 | 104 | 0.0 | 2.6 | 0.00 | 0.00 | 0.00 | 87 | 1018.3 |
| 20260506143003 | 56 | 121 | 0.9 | 2.6 | 0.00 | 0.00 | 0.00 | 87 | 1018.1 |
| 20260506142502 | 56 | 123 | 0.9 | 1.7 | 0.00 | 0.00 | 0.00 | 87 | 1018.0 |
| 20260506142002 | 56 | 145 | 0.9 | 2.6 | 0.00 | 0.00 | 0.00 | 87 | 1018.0 |
| 20260506141503 | 56 | 187 | 0.9 | 2.6 | 0.00 | 0.00 | 0.00 | 87 | 1017.9 |
| 20260506141002 | 56 | 193 | 0.0 | 2.6 | 0.00 | 0.00 | 0.00 | 87 | 1018.0 |
| 20260506140503 | 56 | 0 | 0.0 | 0.0 | 0.00 | 0.00 | 0.00 | 87 | 1018.0 |
| 20260506140002 | 56 | 0 | 0.0 | 0.0 | 0.00 | 0.00 | 0.00 | 87 | 1017.9 |
| 20260506135502 | 56 | 0 | 0.0 | 0.0 | 0.00 | 0.00 | 0.00 | 87 | 1017.8 |
| 20260506135023 | 56 | 0 | 0.0 | 0.0 | 0.00 | 0.00 | 0.00 | 87 | 1017.9 |
| 20260506134502 | 56 | 0 | 0.0 | 0.0 | 0.00 | 0.00 | 0.00 | 87 | 1017.8 |
| 20260506134002 | 56 | 0 | 0.0 | 0.0 | 0.00 | 0.00 | 0.00 | 87 | 1017.7 |
| 20260506133503 | 56 | 0 | 0.0 | 0.0 | 0.00 | 0.00 | 0.00 | 87 | 1017.6 |
| 20260506133023 | 56 | 0 | 0.0 | 0.0 | 0.00 | 0.00 | 0.00 | 86 | 1017.6 |
| 20260506132523 | 56 | 100 | 0.0 | 2.6 | 0.00 | 0.00 | 0.00 | 86 | 1017.6 |
| 20260506132002 | 56 | 100 | 0.0 | 2.6 | 0.00 | 0.00 | 0.00 | 86 | 1017.5 |
| 20260506131502 | 56 | 0 | 0.0 | 0.0 | 0.00 | 0.00 | 0.00 | 86 | 1017.6 |
| 20260506131002 | 56 | 0 | 0.0 | 0.0 | 0.00 | 0.00 | 0.00 | 86 | 1017.7 |
| 20260506130524 | 56 | 0 | 0.0 | 0.0 | 0.00 | 0.00 | 0.00 | 85 | 1017.7 |
| 20260506130002 | 56 | 0 | 0.0 | 0.0 | 0.00 | 0.00 | 0.00 | 85 | 1017.6 |
| 20260506125523 | 56 | 0 | 0.0 | 0.0 | 0.00 | 0.00 | 0.00 | 85 | 1017.6 |
| 20260506125002 | 56 | 0 | 0.0 | 0.0 | 0.00 | 0.00 | 0.00 | 85 | 1017.5 |
| 20260506124503 | 56 | 0 | 0.0 | 0.0 | 0.00 | 0.00 | 0.00 | 85 | 1017.5 |
| 20260506124003 | 56 | 0 | 0.0 | 0.0 | 0.00 | 0.00 | 0.00 | 84 | 1017.6 |
| 20260506123503 | 56 | 0 | 0.0 | 0.0 | 0.00 | 0.00 | 0.00 | 84 | 1017.5 |
| 20260506123023 | 56 | 0 | 0.0 | 0.0 | 0.00 | 0.00 | 0.00 | 84 | 1017.6 |
| 20260506122523 | 56 | 0 | 0.0 | 0.0 | 0.00 | 0.00 | 0.00 | 84 | 1017.5 |
| 20260506122023 | 56 | 0 | 0.0 | 0.0 | 0.00 | 0.00 | 0.00 | 84 | 1017.5 |
| 20260506121502 | 56 | 0 | 0.0 | 0.0 | 0.00 | 0.00 | 0.00 | 84 | 1017.4 |
| 20260506121024 | 56 | 0 | 0.0 | 0.0 | 0.00 | 0.00 | 0.00 | 84 | 1017.4 |
| 20260506120503 | 56 | 0 | 0.0 | 0.0 | 0.00 | 0.00 | 0.00 | 84 | 1017.3 |
| 20260506120024 | 56 | 0 | 0.0 | 0.0 | 0.00 | 0.00 | 0.00 | 84 | 1017.3 |